Location: Caracas
(10.4880°N, 66.8792°W)
Time: 06:01:06
(UTC+00:00)

Cosmos 44 Rocket - Pass Details

Date: 03 August 2024
Orbit: 649 x 733 km, 65.1° (Epoch: 08 September)

Event Time Altitude Azimuth Distance (km) Brightness Sun altitude
Rises 23:03:33 0° 182° (S) 3,144 6.5 -3.9°
Reaches altitude 10° 23:06:08 10° 172° (S) 2,226 5.7 -4.5°
Maximum altitude 23:10:38 32° 110° (ESE) 1,248 4.1 -5.6°
Drops below altitude 10° 23:15:07 10° 48° (NE) 2,221 5.6 -6.6°
Sets 23:17:41 0° 39° (NE) 3,135 6.5 -7.2°
